Tracking 33197 objects as of 18-Feb-2026
HD Live streaming from Space Station
objects crossing your sky now

NOAA 16 DEB

Track NOAA 16 DEB now!
10-day predictions


NORAD ID: 41052
Int'l Code: 2000-055K
Perigee: 753.2 km
Apogee: 989.8 km
Inclination: 98.6 °
Period: 102.2 minutes
Semi major axis: 7242 km
RCS: Unknown
Launch date: September 21, 2000
Source: United States (US)
Launch site: AIR FORCE WESTERN TEST RANGE (AFWTR)

Note: This is SATELLITE DEBRIS
Your satellite tracking list
Your tracking list is empty




NASA's NSSDC Master Catalog

Two Line Element Set (TLE):
1 41052U 00055K   26048.98753565  .00000620  00000-0  34050-3 0  9993
2 41052  98.6082  65.6383 0163375 167.9189 192.5974 14.08536667524929
Source of the keplerian elements: AFSPC